Location: Olomouc
(49.5830°N, 17.2500°E)
Time: 20:02:53
(UTC+02:00)

ISS - Pass Details

Date: 15 May 2021
Orbit: 417 x 422 km, 51.6° (Epoch: 14 June)

Event Time Altitude Azimuth Distance (km) Brightness Sun altitude
Rises 00:25:42 0° 266° (W) 2,365 0.1 -21.4°
Reaches altitude 10° 00:27:48 10° 270° (W) 1,503 -0.9 -21.4°
Maximum altitude 00:31:09 63° 352° (N) 476 -3.3 -21.5°
Drops below altitude 10° 00:34:31 10° 75° (ENE) 1,508 -0.8 -21.5°
Sets 00:36:38 0° 79° (ENE) 2,374 0.2 -21.5°
